This is the latest recevied weather packets stored in our database for station/object K5GHS-1. If no packets are shown the sender has not sent any weather packets the latest 10 day(s).
| Time | Temp. | Humidity | Pressure | Rain* | Wind** | Luminosity | Snow |
|---|---|---|---|---|---|---|---|
| 1777413332 | 26.67° C | 83% | 1008 hPa | 0 mm | - | 6 W/m² | - |
| 1777413027 | 26.67° C | 83% | 1008.3 hPa | 0 mm | - | 6 W/m² | - |
| 1777412722 | 26.67° C | 83% | 1008.6 hPa | 0 mm | - | 7 W/m² | - |
| 1777412420 | 26.67° C | 83% | 1008.7 hPa | 0 mm | - | 7 W/m² | - |
| 1777412120 | 26.67° C | 83% | 1008.6 hPa | 0 mm | - | 5 W/m² | - |
| 1777411815 | 26.67° C | 83% | 1008.6 hPa | 0 mm | - | 5 W/m² | - |
| 1777411514 | 26.67° C | 83% | 1008.5 hPa | 0 mm | - | 3 W/m² | - |
| 1777411208 | 26.67° C | 82% | 1008.3 hPa | 0 mm | - | 3 W/m² | - |
| 1777410903 | 26.67° C | 82% | 1008.4 hPa | 0 mm | - | 4 W/m² | - |
| 1777410596 | 26.67° C | 82% | 1008.1 hPa | 0 mm | - | 5 W/m² | - |
| 1777410291 | 26.67° C | 82% | 1008 hPa | 0 mm | - | 5 W/m² | - |
| 1777409986 | 26.67° C | 82% | 1008.4 hPa | 0 mm | - | 7 W/m² | - |
| 1777409681 | 26.67° C | 82% | 1008.4 hPa | 0 mm | - | 7 W/m² | - |
| 1777409377 | 26.67° C | 82% | 1008.2 hPa | 0 mm | - | 11 W/m² | - |
| 1777409073 | 27.22° C | 82% | 1008.7 hPa | 0 mm | - | 10 W/m² | - |
| 1777408770 | 27.22° C | 82% | 1008.4 hPa | 0 mm | - | 19 W/m² | - |
| 1777408466 | 27.22° C | 81% | 1008 hPa | 0 mm | - | 16 W/m² | - |
| 1777408166 | 27.22° C | 81% | 1008.2 hPa | 0 mm | - | 16 W/m² | - |
| 1777407856 | 27.22° C | 82% | 1008 hPa | 0 mm | - | 30 W/m² | - |
| 1777407554 | 27.22° C | 82% | 1007.5 hPa | 0 mm | - | 24 W/m² | - |
| 1777407254 | 27.22° C | 81% | 1007.3 hPa | 0 mm | - | 26 W/m² | - |
| 1777406948 | 27.22° C | 82% | 1007.4 hPa | 0 mm | - | 28 W/m² | - |
| 1777406648 | 27.22° C | 81% | 1007.7 hPa | 0 mm | - | 28 W/m² | - |
| 1777406344 | 27.78° C | 80% | 1007.2 hPa | 0 mm | - | 29 W/m² | - |
| 1777406044 | 27.78° C | 80% | 1007.4 hPa | 0 mm | - | 65 W/m² | - |
* Rain latest hour (hover to see other rain measurements)
** Current wind speed in m/s (hover to see current wind gust speed)